This is the latest recevied weather packets stored in our database for station/object SQ4IXR-4. If no packets are shown the sender has not sent any weather packets the latest 10 day(s).
| Time | Temp. | Humidity | Pressure | Rain* | Wind** | Luminosity | Snow |
|---|---|---|---|---|---|---|---|
| 1777570851 | 11.11° C | 36% | 1030.5 hPa | - | - | - | - |
| 1777570028 | 11.67° C | 36% | 1030.5 hPa | - | - | - | - |
| 1777569206 | 11.67° C | 35% | 1030.4 hPa | - | - | - | - |
| 1777568383 | 11.67° C | 35% | 1030.4 hPa | - | - | - | - |
| 1777567561 | 12.22° C | 35% | 1030.5 hPa | - | - | - | - |
| 1777566738 | 12.22° C | 34% | 1030.4 hPa | - | - | - | - |
| 1777565916 | 12.78° C | 33% | 1030.4 hPa | - | - | - | - |
| 1777565094 | 13.33° C | 32% | 1030.5 hPa | - | - | - | - |
| 1777564272 | 13.89° C | 32% | 1030.4 hPa | - | - | - | - |
| 1777563449 | 14.44° C | 30% | 1030.2 hPa | - | - | - | - |
| 1777562626 | 15.56° C | 28% | 1030.1 hPa | - | - | - | - |
| 1777561803 | 15.56° C | 28% | 1030 hPa | - | - | - | - |
| 1777560978 | 15° C | 28% | 1030.2 hPa | - | - | - | - |
| 1777560156 | 15° C | 28% | 1030.2 hPa | - | - | - | - |
| 1777558509 | 17.22° C | 25% | 1030.4 hPa | - | - | - | - |
| 1777557687 | 17.78° C | 24% | 1030.4 hPa | - | - | - | - |
| 1777556866 | 18.89° C | 22% | 1030.3 hPa | - | - | - | - |
| 1777556047 | 19.44° C | 22% | 1030.5 hPa | - | - | - | - |
| 1777555220 | 21.11° C | 21% | 1030.4 hPa | - | - | - | - |
| 1777554394 | 20° C | 22% | 1030.7 hPa | - | - | - | - |
| 1777553566 | 18.33° C | 23% | 1030.8 hPa | - | - | - | - |
| 1777552744 | 18.89° C | 23% | 1030.9 hPa | - | - | - | - |
| 1777551920 | 19.44° C | 22% | 1030.9 hPa | - | - | - | - |
| 1777551097 | 19.44° C | 22% | 1031.2 hPa | - | - | - | - |
| 1777550275 | 19.44° C | 21% | 1031.3 hPa | - | - | - | - |
* Rain since midnight (hover to see other rain measurements)
** Current wind speed in m/s (hover to see current wind gust speed)